Year,Month,Day,Hour,Minute,Value (Times are PST for windgust in km/hr)
2021,10,25,00,00,56.30
2021,10,25,00,01,56.30
2021,10,25,00,02,53.10
2021,10,25,00,03,57.90
2021,10,25,00,04,57.90
2021,10,25,00,05,57.90
2021,10,25,00,06,70.80
2021,10,25,00,07,53.10
2021,10,25,00,08,72.40
2021,10,25,00,09,59.50
2021,10,25,00,10,53.10
2021,10,25,00,11,67.60
2021,10,25,00,12,56.30
2021,10,25,00,13,64.40
2021,10,25,00,14,59.50
2021,10,25,00,15,59.50
2021,10,25,00,16,64.40
2021,10,25,00,17,57.90
2021,10,25,00,18,54.70
2021,10,25,00,19,49.90
2021,10,25,00,20,62.70
2021,10,25,00,21,61.20
2021,10,25,00,22,53.10
2021,10,25,00,23,59.50
2021,10,25,00,24,57.90
2021,10,25,00,25,56.30
2021,10,25,00,26,53.10
2021,10,25,00,27,64.40
2021,10,25,00,28,57.90
2021,10,25,00,29,74.00
2021,10,25,00,30,56.30
2021,10,25,00,31,54.70
2021,10,25,00,32,56.30
2021,10,25,00,33,54.70
2021,10,25,00,34,59.50
2021,10,25,00,35,51.50
2021,10,25,00,36,53.10
2021,10,25,00,37,67.60
2021,10,25,00,38,61.20
2021,10,25,00,39,48.30
2021,10,25,00,40,46.70
2021,10,25,00,41,54.70
2021,10,25,00,42,51.50
2021,10,25,00,43,59.50
2021,10,25,00,44,64.40
2021,10,25,00,45,53.10
2021,10,25,00,46,43.50
2021,10,25,00,47,54.70
2021,10,25,00,48,61.20
2021,10,25,00,49,48.30
2021,10,25,00,50,54.70
2021,10,25,00,51,61.20
2021,10,25,00,52,56.30
2021,10,25,00,53,54.70
2021,10,25,00,54,46.70
2021,10,25,00,55,61.20
2021,10,25,00,56,62.70
2021,10,25,00,57,59.50
2021,10,25,00,58,56.30
2021,10,25,00,59,54.70
2021,10,25,01,00,66.00
2021,10,25,01,01,61.20
2021,10,25,01,02,57.90
2021,10,25,01,03,59.50
2021,10,25,01,04,59.50
2021,10,25,01,05,59.50
2021,10,25,01,06,59.50
2021,10,25,01,07,57.90
2021,10,25,01,08,67.60
2021,10,25,01,09,59.50
2021,10,25,01,10,56.30
2021,10,25,01,11,56.30
2021,10,25,01,12,57.90
2021,10,25,01,13,54.70
2021,10,25,01,14,67.60
2021,10,25,01,15,57.90
2021,10,25,01,16,51.50
2021,10,25,01,17,53.10
2021,10,25,01,18,61.20
2021,10,25,01,19,51.50
2021,10,25,01,20,53.10
2021,10,25,01,21,53.10
2021,10,25,01,22,48.30
2021,10,25,01,23,49.90
2021,10,25,01,24,51.50
2021,10,25,01,25,66.00
2021,10,25,01,26,49.90
2021,10,25,01,27,67.60
2021,10,25,01,28,59.50
2021,10,25,01,29,56.30
2021,10,25,01,30,66.00
2021,10,25,01,31,56.30
2021,10,25,01,32,56.30
2021,10,25,01,33,56.30
2021,10,25,01,34,61.20
2021,10,25,01,35,53.10
2021,10,25,01,36,59.50
2021,10,25,01,37,61.20
2021,10,25,01,38,67.60
2021,10,25,01,39,61.20
2021,10,25,01,40,61.20
2021,10,25,01,41,56.30
2021,10,25,01,42,57.90
2021,10,25,01,43,57.90
2021,10,25,01,44,59.50
2021,10,25,01,45,53.10
2021,10,25,01,46,48.30
2021,10,25,01,47,53.10
2021,10,25,01,48,54.70
2021,10,25,01,49,53.10
2021,10,25,01,50,57.90
2021,10,25,01,51,59.50
2021,10,25,01,52,54.70
2021,10,25,01,53,51.50
2021,10,25,01,54,53.10
2021,10,25,01,55,56.30
2021,10,25,01,56,49.90
2021,10,25,01,57,56.30
2021,10,25,01,58,48.30
2021,10,25,01,59,45.10
2021,10,25,02,00,51.50
2021,10,25,02,01,64.40
2021,10,25,02,02,72.40
2021,10,25,02,03,57.90
2021,10,25,02,04,54.70
2021,10,25,02,05,62.70
2021,10,25,02,06,62.70
2021,10,25,02,07,57.90
2021,10,25,02,08,66.00
2021,10,25,02,09,64.40
2021,10,25,02,10,64.40
2021,10,25,02,11,57.90
2021,10,25,02,12,54.70
2021,10,25,02,13,66.00
2021,10,25,02,14,54.70
2021,10,25,02,15,59.50
2021,10,25,02,16,69.20
2021,10,25,02,17,61.20
2021,10,25,02,18,56.30
2021,10,25,02,19,61.20
2021,10,25,02,20,61.20
2021,10,25,02,21,59.50
2021,10,25,02,22,66.00
2021,10,25,02,23,61.20
2021,10,25,02,24,75.60
2021,10,25,02,25,62.70
2021,10,25,02,26,67.60
2021,10,25,02,27,64.40
2021,10,25,02,28,77.30
2021,10,25,02,29,54.70
2021,10,25,02,30,66.00
2021,10,25,02,31,53.10
2021,10,25,02,32,59.50
2021,10,25,02,33,64.40
2021,10,25,02,34,59.50
2021,10,25,02,35,61.20
2021,10,25,02,36,57.90
2021,10,25,02,37,70.80
2021,10,25,02,38,62.70
2021,10,25,02,39,78.80
2021,10,25,02,40,67.60
2021,10,25,02,41,61.20
2021,10,25,02,42,54.70
2021,10,25,02,43,67.60
2021,10,25,02,44,69.20
2021,10,25,02,45,53.10
2021,10,25,02,46,61.20
2021,10,25,02,47,61.20
2021,10,25,02,48,57.90
2021,10,25,02,49,66.00
2021,10,25,02,50,69.20
2021,10,25,02,51,67.60
2021,10,25,02,52,61.20
2021,10,25,02,53,59.50
2021,10,25,02,54,61.20
2021,10,25,02,55,56.30
2021,10,25,02,56,64.40
2021,10,25,02,57,59.50
2021,10,25,02,58,61.20
2021,10,25,02,59,57.90
2021,10,25,03,00,56.30
2021,10,25,03,01,53.10
2021,10,25,03,02,57.90
2021,10,25,03,03,70.80
2021,10,25,03,04,62.70
2021,10,25,03,05,46.70
2021,10,25,03,06,54.70
2021,10,25,03,07,51.50
2021,10,25,03,08,48.30
2021,10,25,03,09,49.90
2021,10,25,03,10,61.20
2021,10,25,03,11,48.30
2021,10,25,03,12,59.50
2021,10,25,03,13,49.90
2021,10,25,03,14,54.70
2021,10,25,03,15,54.70
2021,10,25,03,16,54.70
2021,10,25,03,17,51.50
2021,10,25,03,18,41.80
2021,10,25,03,19,43.50
2021,10,25,03,20,61.20
2021,10,25,03,21,56.30
2021,10,25,03,22,54.70
2021,10,25,03,23,54.70
2021,10,25,03,24,56.30
2021,10,25,03,25,49.90
2021,10,25,03,26,49.90
2021,10,25,03,27,48.30
2021,10,25,03,28,64.40
2021,10,25,03,29,51.50
2021,10,25,03,30,59.50
2021,10,25,03,31,48.30
2021,10,25,03,32,57.90
2021,10,25,03,33,43.50
2021,10,25,03,34,49.90
2021,10,25,03,35,57.90
2021,10,25,03,36,49.90
2021,10,25,03,37,48.30
2021,10,25,03,38,45.10
2021,10,25,03,39,56.30
2021,10,25,03,40,49.90
2021,10,25,03,41,46.70
2021,10,25,03,42,48.30
2021,10,25,03,43,45.10
2021,10,25,03,44,56.30
2021,10,25,03,45,49.90
2021,10,25,03,46,40.20
2021,10,25,03,47,43.50
2021,10,25,03,48,46.70
2021,10,25,03,49,51.50
2021,10,25,03,50,49.90
2021,10,25,03,51,45.10
2021,10,25,03,52,49.90
2021,10,25,03,53,49.90
2021,10,25,03,54,45.10
2021,10,25,03,55,53.10
2021,10,25,03,56,61.20
2021,10,25,03,57,61.20
2021,10,25,03,58,56.30
2021,10,25,03,59,62.70
2021,10,25,04,00,56.30
2021,10,25,04,01,46.70
2021,10,25,04,02,54.70
2021,10,25,04,03,53.10
2021,10,25,04,04,62.70
2021,10,25,04,05,43.50
2021,10,25,04,06,48.30
2021,10,25,04,07,41.80
2021,10,25,04,08,51.50
2021,10,25,04,09,51.50
2021,10,25,04,10,49.90
2021,10,25,04,11,56.30
2021,10,25,04,12,46.70
2021,10,25,04,13,51.50
2021,10,25,04,14,48.30
2021,10,25,04,15,41.80
2021,10,25,04,16,53.10
2021,10,25,04,17,51.50
2021,10,25,04,18,49.90
2021,10,25,04,19,48.30
2021,10,25,04,20,46.70
2021,10,25,04,21,53.10
2021,10,25,04,22,46.70
2021,10,25,04,23,46.70
2021,10,25,04,24,53.10
2021,10,25,04,25,46.70
2021,10,25,04,26,45.10
2021,10,25,04,27,49.90
2021,10,25,04,28,45.10
2021,10,25,04,29,45.10
2021,10,25,04,30,48.30
2021,10,25,04,31,51.50
2021,10,25,04,32,57.90
2021,10,25,04,33,57.90
2021,10,25,04,34,51.50
2021,10,25,04,35,51.50
2021,10,25,04,36,53.10
2021,10,25,04,37,56.30
2021,10,25,04,38,54.70
2021,10,25,04,39,54.70
2021,10,25,04,40,57.90
2021,10,25,04,41,59.50
2021,10,25,04,42,54.70
2021,10,25,04,43,53.10
2021,10,25,04,44,51.50
2021,10,25,04,45,56.30
2021,10,25,04,46,48.30
2021,10,25,04,47,62.70
2021,10,25,04,48,54.70
2021,10,25,04,49,56.30
2021,10,25,04,50,61.20
2021,10,25,04,51,57.90
2021,10,25,04,52,53.10
2021,10,25,04,53,53.10
2021,10,25,04,54,64.40
2021,10,25,04,55,61.20
2021,10,25,04,56,51.50
2021,10,25,04,57,59.50
2021,10,25,04,58,67.60
2021,10,25,04,59,64.40
2021,10,25,05,00,56.30
2021,10,25,05,01,59.50
2021,10,25,05,02,62.70
2021,10,25,05,03,56.30
2021,10,25,05,04,56.30
2021,10,25,05,05,59.50
2021,10,25,05,06,64.40
2021,10,25,05,07,56.30
2021,10,25,05,08,59.50
2021,10,25,05,09,59.50
2021,10,25,05,10,53.10
2021,10,25,05,11,64.40
2021,10,25,05,12,74.00
2021,10,25,05,13,57.90
2021,10,25,05,14,70.80
2021,10,25,05,15,57.90
2021,10,25,05,16,61.20
2021,10,25,05,17,61.20
2021,10,25,05,18,67.60
2021,10,25,05,19,51.50
2021,10,25,05,20,66.00
2021,10,25,05,21,67.60
2021,10,25,05,22,64.40
2021,10,25,05,23,48.30
2021,10,25,05,24,57.90
2021,10,25,05,25,59.50
2021,10,25,05,26,74.00
2021,10,25,05,27,53.10
2021,10,25,05,28,54.70
2021,10,25,05,29,62.70
2021,10,25,05,30,67.60
2021,10,25,05,31,57.90
2021,10,25,05,32,59.50
2021,10,25,05,33,59.50
2021,10,25,05,34,57.90
2021,10,25,05,35,67.60
2021,10,25,05,36,62.70
2021,10,25,05,37,62.70
2021,10,25,05,38,59.50
2021,10,25,05,39,64.40
2021,10,25,05,40,67.60
2021,10,25,05,41,61.20
2021,10,25,05,42,66.00
2021,10,25,05,43,62.70
2021,10,25,05,44,61.20
2021,10,25,05,45,57.90
2021,10,25,05,46,69.20
2021,10,25,05,47,62.70
2021,10,25,05,48,49.90
2021,10,25,05,49,51.50
2021,10,25,05,50,46.70
2021,10,25,05,51,64.40
2021,10,25,05,52,53.10
2021,10,25,05,53,72.40
2021,10,25,05,54,56.30
2021,10,25,05,55,51.50
2021,10,25,05,56,59.50
2021,10,25,05,57,57.90
2021,10,25,05,58,64.40
2021,10,25,05,59,56.30
2021,10,25,06,00,57.90
2021,10,25,06,01,62.70
2021,10,25,06,02,67.60
2021,10,25,06,03,49.90
2021,10,25,06,04,54.70
2021,10,25,06,05,57.90
2021,10,25,06,06,53.10
2021,10,25,06,07,51.50
2021,10,25,06,08,48.30
2021,10,25,06,09,43.50
2021,10,25,06,10,48.30
2021,10,25,06,11,57.90
2021,10,25,06,12,53.10
2021,10,25,06,13,45.10
2021,10,25,06,14,53.10
2021,10,25,06,15,51.50
2021,10,25,06,16,48.30
2021,10,25,06,17,56.30
2021,10,25,06,18,57.90
2021,10,25,06,19,54.70
2021,10,25,06,20,41.80
2021,10,25,06,21,54.70
2021,10,25,06,22,62.70
2021,10,25,06,23,53.10
2021,10,25,06,24,54.70
2021,10,25,06,25,54.70
2021,10,25,06,26,53.10
2021,10,25,06,27,53.10
2021,10,25,06,28,64.40
2021,10,25,06,29,59.50
2021,10,25,06,30,59.50
2021,10,25,06,31,59.50
2021,10,25,06,32,64.40
2021,10,25,06,33,61.20
2021,10,25,06,34,69.20
2021,10,25,06,35,64.40
2021,10,25,06,36,49.90
2021,10,25,06,37,51.50
2021,10,25,06,38,45.10
2021,10,25,06,39,51.50
2021,10,25,06,40,74.00
2021,10,25,06,41,70.80
2021,10,25,06,42,48.30
2021,10,25,06,43,64.40
2021,10,25,06,44,57.90
2021,10,25,06,45,56.30
2021,10,25,06,46,61.20
2021,10,25,06,47,59.50
2021,10,25,06,48,51.50
2021,10,25,06,49,67.60
2021,10,25,06,50,53.10
2021,10,25,06,51,61.20
2021,10,25,06,52,57.90
2021,10,25,06,53,56.30
2021,10,25,06,54,51.50
2021,10,25,06,55,56.30
2021,10,25,06,56,59.50
2021,10,25,06,57,53.10
2021,10,25,06,58,54.70
2021,10,25,06,59,59.50
2021,10,25,07,00,53.10
2021,10,25,07,01,56.30
2021,10,25,07,02,59.50
2021,10,25,07,03,59.50
2021,10,25,07,04,46.70
2021,10,25,07,05,57.90
2021,10,25,07,06,66.00
2021,10,25,07,07,54.70
2021,10,25,07,08,49.90
2021,10,25,07,09,56.30
2021,10,25,07,10,54.70
2021,10,25,07,11,70.80
2021,10,25,07,12,62.70
2021,10,25,07,13,66.00
2021,10,25,07,14,53.10
2021,10,25,07,15,54.70
2021,10,25,07,16,57.90
2021,10,25,07,17,54.70
2021,10,25,07,18,69.20
2021,10,25,07,19,64.40
2021,10,25,07,20,49.90
2021,10,25,07,21,57.90
2021,10,25,07,22,54.70
2021,10,25,07,23,56.30
2021,10,25,07,24,45.10
2021,10,25,07,25,59.50
2021,10,25,07,26,48.30
2021,10,25,07,27,59.50
2021,10,25,07,28,54.70
2021,10,25,07,29,51.50
2021,10,25,07,30,61.20
2021,10,25,07,31,43.50
2021,10,25,07,32,48.30
2021,10,25,07,33,57.90
2021,10,25,07,34,66.00
2021,10,25,07,35,59.50
2021,10,25,07,36,64.40
2021,10,25,07,37,56.30
2021,10,25,07,38,57.90
2021,10,25,07,39,56.30
2021,10,25,07,40,59.50
2021,10,25,07,41,51.50
2021,10,25,07,42,48.30
2021,10,25,07,43,54.70
2021,10,25,07,44,54.70
2021,10,25,07,45,56.30
2021,10,25,07,46,61.20
2021,10,25,07,47,54.70
2021,10,25,07,48,64.40
2021,10,25,07,49,56.30
2021,10,25,07,50,54.70
2021,10,25,07,51,53.10
2021,10,25,07,52,59.50
2021,10,25,07,53,59.50
2021,10,25,07,54,54.70
2021,10,25,07,55,67.60
2021,10,25,07,56,57.90
2021,10,25,07,57,59.50
2021,10,25,07,58,59.50
2021,10,25,07,59,59.50
2021,10,25,08,00,56.30
2021,10,25,08,01,59.50
2021,10,25,08,02,48.30
2021,10,25,08,03,56.30
2021,10,25,08,04,54.70
2021,10,25,08,05,51.50
2021,10,25,08,06,46.70
2021,10,25,08,07,49.90
2021,10,25,08,08,54.70
2021,10,25,08,09,53.10
2021,10,25,08,10,53.10
2021,10,25,08,11,53.10
2021,10,25,08,12,48.30
2021,10,25,08,13,46.70
2021,10,25,08,14,49.90
2021,10,25,08,15,43.50
2021,10,25,08,16,43.50
2021,10,25,08,17,45.10
2021,10,25,08,18,48.30
2021,10,25,08,19,37.00
2021,10,25,08,20,43.50
2021,10,25,08,21,51.50
2021,10,25,08,22,59.50
2021,10,25,08,23,56.30
2021,10,25,08,24,51.50
2021,10,25,08,25,38.60
2021,10,25,08,26,45.10
2021,10,25,08,27,53.10
2021,10,25,08,28,53.10
2021,10,25,08,29,41.80
2021,10,25,08,30,48.30
2021,10,25,08,31,48.30
2021,10,25,08,32,54.70
2021,10,25,08,33,56.30
2021,10,25,08,34,49.90
2021,10,25,08,35,46.70
2021,10,25,08,36,38.60
2021,10,25,08,37,48.30
2021,10,25,08,38,41.80
2021,10,25,08,39,46.70
2021,10,25,08,40,49.90
2021,10,25,08,41,49.90
2021,10,25,08,42,54.70
2021,10,25,08,43,62.70
2021,10,25,08,44,54.70
2021,10,25,08,45,54.70
2021,10,25,08,46,62.70
2021,10,25,08,47,43.50
2021,10,25,08,48,56.30
2021,10,25,08,49,56.30
2021,10,25,08,50,64.40
2021,10,25,08,51,56.30
2021,10,25,08,52,72.40
2021,10,25,08,53,66.00
2021,10,25,08,54,49.90
2021,10,25,08,55,53.10
2021,10,25,08,56,67.60
2021,10,25,08,57,48.30
2021,10,25,08,58,51.50
2021,10,25,08,59,49.90
2021,10,25,09,00,43.50
2021,10,25,09,01,46.70
2021,10,25,09,02,46.70
2021,10,25,09,03,53.10
2021,10,25,09,04,48.30
2021,10,25,09,05,57.90
2021,10,25,09,06,57.90
2021,10,25,09,07,57.90
2021,10,25,09,08,49.90
2021,10,25,09,09,56.30
2021,10,25,09,10,46.70
2021,10,25,09,11,56.30
2021,10,25,09,12,62.70
2021,10,25,09,13,57.90
2021,10,25,09,14,59.50
2021,10,25,09,15,48.30
2021,10,25,09,16,53.10
2021,10,25,09,17,49.90
2021,10,25,09,18,53.10
2021,10,25,09,19,46.70
2021,10,25,09,20,56.30
2021,10,25,09,21,56.30
2021,10,25,09,22,54.70
2021,10,25,09,23,70.80
2021,10,25,09,24,54.70
2021,10,25,09,25,43.50
2021,10,25,09,26,43.50
2021,10,25,09,27,45.10
2021,10,25,09,28,53.10
2021,10,25,09,29,49.90
2021,10,25,09,30,51.50
2021,10,25,09,31,45.10
2021,10,25,09,32,53.10
2021,10,25,09,33,49.90
2021,10,25,09,34,54.70
2021,10,25,09,35,53.10
2021,10,25,09,36,48.30
2021,10,25,09,37,46.70
2021,10,25,09,38,46.70
2021,10,25,09,39,41.80
2021,10,25,09,40,43.50
2021,10,25,09,41,46.70
2021,10,25,09,42,48.30
2021,10,25,09,43,48.30
2021,10,25,09,44,48.30
2021,10,25,09,45,46.70
2021,10,25,09,46,40.20
2021,10,25,09,47,49.90
2021,10,25,09,48,48.30
2021,10,25,09,49,46.70
2021,10,25,09,50,49.90
2021,10,25,09,51,49.90
2021,10,25,09,52,45.10
2021,10,25,09,53,43.50
2021,10,25,09,54,43.50
2021,10,25,09,55,46.70
2021,10,25,09,56,45.10
2021,10,25,09,57,54.70
2021,10,25,09,58,56.30
2021,10,25,09,59,51.50
2021,10,25,10,00,54.70
2021,10,25,10,01,49.90
2021,10,25,10,02,43.50
2021,10,25,10,03,49.90
2021,10,25,10,04,53.10
2021,10,25,10,05,53.10
2021,10,25,10,06,46.70
2021,10,25,10,07,49.90
2021,10,25,10,08,54.70
2021,10,25,10,09,48.30
2021,10,25,10,10,56.30
2021,10,25,10,11,49.90
2021,10,25,10,12,56.30
2021,10,25,10,13,51.50
2021,10,25,10,14,46.70
2021,10,25,10,15,53.10
2021,10,25,10,16,54.70
2021,10,25,10,17,51.50
2021,10,25,10,18,51.50
2021,10,25,10,19,53.10
2021,10,25,10,20,49.90
2021,10,25,10,21,57.90
2021,10,25,10,22,64.40
2021,10,25,10,23,53.10
2021,10,25,10,24,53.10
2021,10,25,10,25,53.10
2021,10,25,10,26,49.90
2021,10,25,10,27,57.90
2021,10,25,10,28,53.10
2021,10,25,10,29,56.30
2021,10,25,10,30,54.70
2021,10,25,10,31,54.70
2021,10,25,10,32,51.50
2021,10,25,10,33,49.90
2021,10,25,10,34,49.90
2021,10,25,10,35,51.50
2021,10,25,10,36,56.30
2021,10,25,10,37,53.10
2021,10,25,10,38,53.10
2021,10,25,10,39,49.90
2021,10,25,10,40,56.30
2021,10,25,10,41,66.00
2021,10,25,10,42,48.30
2021,10,25,10,43,57.90
2021,10,25,10,44,45.10
2021,10,25,10,45,43.50
2021,10,25,10,46,41.80
2021,10,25,10,47,43.50
2021,10,25,10,48,51.50
2021,10,25,10,49,49.90
2021,10,25,10,50,48.30
2021,10,25,10,51,48.30
2021,10,25,10,52,49.90
2021,10,25,10,53,49.90
2021,10,25,10,54,46.70
2021,10,25,10,55,53.10
2021,10,25,10,56,49.90
2021,10,25,10,57,53.10
2021,10,25,10,58,43.50
2021,10,25,10,59,46.70
2021,10,25,11,00,40.20
2021,10,25,11,01,43.50
2021,10,25,11,02,45.10
2021,10,25,11,03,41.80
2021,10,25,11,04,45.10
2021,10,25,11,05,45.10
2021,10,25,11,06,49.90
2021,10,25,11,07,51.50
2021,10,25,11,08,51.50
2021,10,25,11,09,49.90
2021,10,25,11,10,54.70
2021,10,25,11,11,54.70
2021,10,25,11,12,46.70
2021,10,25,11,13,48.30
2021,10,25,11,14,51.50
2021,10,25,11,15,48.30
2021,10,25,11,16,61.20
2021,10,25,11,17,59.50
2021,10,25,11,18,51.50
2021,10,25,11,19,53.10
2021,10,25,11,20,54.70
2021,10,25,11,21,54.70
2021,10,25,11,22,53.10
2021,10,25,11,23,53.10
2021,10,25,11,24,48.30
2021,10,25,11,25,48.30
2021,10,25,11,26,46.70
2021,10,25,11,27,41.80
2021,10,25,11,28,48.30
2021,10,25,11,29,56.30
2021,10,25,11,30,45.10
2021,10,25,11,31,49.90
2021,10,25,11,32,35.40
2021,10,25,11,33,37.00
2021,10,25,11,34,40.20
2021,10,25,11,35,46.70
2021,10,25,11,36,35.40
2021,10,25,11,37,40.20
2021,10,25,11,38,41.80
2021,10,25,11,39,49.90
2021,10,25,11,40,35.40
2021,10,25,11,41,37.00
2021,10,25,11,42,38.60
2021,10,25,11,43,38.60
2021,10,25,11,44,38.60
2021,10,25,11,45,43.50
2021,10,25,11,46,37.00
2021,10,25,11,47,45.10
2021,10,25,11,48,37.00
2021,10,25,11,49,48.30
2021,10,25,11,50,43.50
2021,10,25,11,51,43.50
2021,10,25,11,52,40.20
2021,10,25,11,53,29.00
2021,10,25,11,54,48.30
2021,10,25,11,55,51.50
2021,10,25,11,56,37.00
2021,10,25,11,57,41.80
2021,10,25,11,58,38.60
2021,10,25,11,59,33.80
2021,10,25,12,00,40.20
2021,10,25,12,01,40.20
2021,10,25,12,02,35.40
2021,10,25,12,03,43.50
2021,10,25,12,04,46.70
2021,10,25,12,05,40.20
2021,10,25,12,06,37.00
2021,10,25,12,07,38.60
2021,10,25,12,08,48.30
2021,10,25,12,09,38.60
2021,10,25,12,10,32.20
2021,10,25,12,11,40.20
2021,10,25,12,12,49.90
2021,10,25,12,13,38.60
2021,10,25,12,14,35.40
2021,10,25,12,15,35.40
2021,10,25,12,16,49.90
2021,10,25,12,17,43.50
2021,10,25,12,18,40.20
2021,10,25,12,19,38.60
2021,10,25,12,20,46.70
2021,10,25,12,21,40.20
2021,10,25,12,22,35.40
2021,10,25,12,23,46.70
2021,10,25,12,24,46.70
2021,10,25,12,25,43.50
2021,10,25,12,26,41.80
2021,10,25,12,27,37.00
2021,10,25,12,28,48.30
2021,10,25,12,29,35.40
2021,10,25,12,30,43.50
2021,10,25,12,31,46.70
2021,10,25,12,32,46.70
2021,10,25,12,33,51.50
2021,10,25,12,34,43.50
2021,10,25,12,35,48.30
2021,10,25,12,36,48.30
2021,10,25,12,37,46.70
2021,10,25,12,38,45.10
2021,10,25,12,39,46.70
2021,10,25,12,40,43.50
2021,10,25,12,41,41.80
2021,10,25,12,42,41.80
2021,10,25,12,43,57.90
2021,10,25,12,44,49.90
2021,10,25,12,45,45.10
2021,10,25,12,46,49.90
2021,10,25,12,47,46.70
2021,10,25,12,48,40.20
2021,10,25,12,49,48.30
2021,10,25,12,50,45.10
2021,10,25,12,51,45.10
2021,10,25,12,52,46.70
2021,10,25,12,53,48.30
2021,10,25,12,54,54.70
2021,10,25,12,55,40.20
2021,10,25,12,56,49.90
2021,10,25,12,57,49.90
2021,10,25,12,58,45.10
2021,10,25,12,59,54.70
2021,10,25,13,00,51.50
2021,10,25,13,01,43.50
2021,10,25,13,02,48.30
2021,10,25,13,03,49.90
2021,10,25,13,04,38.60
2021,10,25,13,05,38.60
2021,10,25,13,06,43.50
2021,10,25,13,07,43.50
2021,10,25,13,08,46.70
2021,10,25,13,09,40.20
2021,10,25,13,10,49.90
2021,10,25,13,11,48.30
2021,10,25,13,12,41.80
2021,10,25,13,13,41.80
2021,10,25,13,14,38.60
2021,10,25,13,15,35.40
2021,10,25,13,16,41.80
2021,10,25,13,17,45.10
2021,10,25,13,18,38.60
2021,10,25,13,19,45.10
2021,10,25,13,20,48.30
2021,10,25,13,21,43.50
2021,10,25,13,22,43.50
2021,10,25,13,23,43.50
2021,10,25,13,24,48.30
2021,10,25,13,25,43.50
2021,10,25,13,26,43.50
2021,10,25,13,27,46.70
2021,10,25,13,28,46.70
2021,10,25,13,29,43.50
2021,10,25,13,30,43.50
2021,10,25,13,31,38.60
2021,10,25,13,32,40.20
2021,10,25,13,33,41.80
2021,10,25,13,34,51.50
2021,10,25,13,35,40.20
2021,10,25,13,36,38.60
2021,10,25,13,37,45.10
2021,10,25,13,38,45.10
2021,10,25,13,39,57.90
2021,10,25,13,40,45.10
2021,10,25,13,41,41.80
2021,10,25,13,42,48.30
2021,10,25,13,43,49.90
2021,10,25,13,44,45.10
2021,10,25,13,45,40.20
2021,10,25,13,46,41.80
2021,10,25,13,47,43.50
2021,10,25,13,48,43.50
2021,10,25,13,49,48.30
2021,10,25,13,50,43.50
2021,10,25,13,51,46.70
2021,10,25,13,52,49.90
2021,10,25,13,53,54.70
2021,10,25,13,54,54.70
2021,10,25,13,55,51.50
2021,10,25,13,56,51.50
2021,10,25,13,57,49.90
2021,10,25,13,58,41.80
2021,10,25,13,59,59.50
2021,10,25,14,00,53.10
2021,10,25,14,01,53.10
2021,10,25,14,02,48.30
2021,10,25,14,03,40.20
2021,10,25,14,04,46.70
2021,10,25,14,05,43.50
2021,10,25,14,06,46.70
2021,10,25,14,07,37.00
2021,10,25,14,08,37.00
2021,10,25,14,09,40.20
2021,10,25,14,10,38.60
2021,10,25,14,11,41.80
2021,10,25,14,12,41.80
2021,10,25,14,13,33.80
2021,10,25,14,14,37.00
2021,10,25,14,15,41.80
2021,10,25,14,16,37.00
2021,10,25,14,17,40.20
2021,10,25,14,18,40.20
2021,10,25,14,19,43.50
2021,10,25,14,20,40.20
2021,10,25,14,21,41.80
2021,10,25,14,22,38.60
2021,10,25,14,23,35.40
2021,10,25,14,24,49.90
2021,10,25,14,25,38.60
2021,10,25,14,26,37.00
2021,10,25,14,27,33.80
2021,10,25,14,28,37.00
2021,10,25,14,29,48.30
2021,10,25,14,30,46.70
2021,10,25,14,31,46.70
2021,10,25,14,32,45.10
2021,10,25,14,33,48.30
2021,10,25,14,34,40.20
2021,10,25,14,35,45.10
2021,10,25,14,36,48.30
2021,10,25,14,37,41.80
2021,10,25,14,38,48.30
2021,10,25,14,39,43.50
2021,10,25,14,40,48.30
2021,10,25,14,41,43.50
2021,10,25,14,42,45.10
2021,10,25,14,43,43.50
2021,10,25,14,44,41.80
2021,10,25,14,45,46.70
2021,10,25,14,46,48.30
2021,10,25,14,47,49.90
2021,10,25,14,48,46.70
2021,10,25,14,49,45.10
2021,10,25,14,50,46.70
2021,10,25,14,51,45.10
2021,10,25,14,52,51.50
2021,10,25,14,53,43.50
2021,10,25,14,54,49.90
2021,10,25,14,55,53.10
2021,10,25,14,56,51.50
2021,10,25,14,57,51.50
2021,10,25,14,58,46.70
2021,10,25,14,59,41.80
2021,10,25,15,00,53.10
2021,10,25,15,01,46.70
2021,10,25,15,02,48.30
2021,10,25,15,03,45.10
2021,10,25,15,04,41.80
2021,10,25,15,05,38.60
2021,10,25,15,06,41.80
2021,10,25,15,07,49.90
2021,10,25,15,08,45.10
2021,10,25,15,09,40.20
2021,10,25,15,10,48.30
2021,10,25,15,11,45.10
2021,10,25,15,12,45.10
2021,10,25,15,13,46.70
2021,10,25,15,14,51.50
2021,10,25,15,15,41.80
2021,10,25,15,16,56.30
2021,10,25,15,17,46.70
2021,10,25,15,18,43.50
2021,10,25,15,19,45.10
2021,10,25,15,20,54.70
2021,10,25,15,21,49.90
2021,10,25,15,22,46.70
2021,10,25,15,23,49.90
2021,10,25,15,24,37.00
2021,10,25,15,25,45.10
2021,10,25,15,26,48.30
2021,10,25,15,27,46.70
2021,10,25,15,28,45.10
2021,10,25,15,29,43.50
2021,10,25,15,30,41.80
2021,10,25,15,31,40.20
2021,10,25,15,32,46.70
2021,10,25,15,33,45.10
2021,10,25,15,34,37.00
2021,10,25,15,35,37.00
2021,10,25,15,36,37.00
2021,10,25,15,37,45.10
2021,10,25,15,38,37.00
2021,10,25,15,39,35.40
2021,10,25,15,40,35.40
2021,10,25,15,41,33.80
2021,10,25,15,42,33.80
2021,10,25,15,43,35.40
2021,10,25,15,44,35.40
2021,10,25,15,45,32.20
2021,10,25,15,46,30.60
2021,10,25,15,47,24.20
2021,10,25,15,48,30.60
2021,10,25,15,49,29.00
2021,10,25,15,50,33.80
2021,10,25,15,51,33.80
2021,10,25,15,52,38.60
2021,10,25,15,53,35.40
2021,10,25,15,54,32.20
2021,10,25,15,55,32.20
2021,10,25,15,56,25.70
2021,10,25,15,57,32.20
2021,10,25,15,58,35.40
2021,10,25,15,59,27.40
2021,10,25,16,00,33.80
2021,10,25,16,01,32.20
2021,10,25,16,02,27.40
2021,10,25,16,03,32.20
2021,10,25,16,04,27.40
2021,10,25,16,05,27.40
2021,10,25,16,06,30.60
2021,10,25,16,07,33.80
2021,10,25,16,08,32.20
2021,10,25,16,09,38.60
2021,10,25,16,10,40.20
2021,10,25,16,11,37.00
2021,10,25,16,12,41.80
2021,10,25,16,13,41.80
2021,10,25,16,14,38.60
2021,10,25,16,15,41.80
2021,10,25,16,16,49.90
2021,10,25,16,17,40.20
2021,10,25,16,18,48.30
2021,10,25,16,19,43.50
2021,10,25,16,20,43.50
2021,10,25,16,21,40.20
2021,10,25,16,22,45.10
2021,10,25,16,23,45.10
2021,10,25,16,24,41.80
2021,10,25,16,25,41.80
2021,10,25,16,26,41.80
2021,10,25,16,27,41.80
2021,10,25,16,28,35.40
2021,10,25,16,29,33.80
2021,10,25,16,30,38.60
2021,10,25,16,31,35.40
2021,10,25,16,32,38.60
2021,10,25,16,33,40.20
2021,10,25,16,34,37.00
2021,10,25,16,35,40.20
2021,10,25,16,36,30.60
2021,10,25,16,37,33.80
2021,10,25,16,38,32.20
2021,10,25,16,39,41.80
2021,10,25,16,40,41.80
2021,10,25,16,41,35.40
2021,10,25,16,42,37.00
2021,10,25,16,43,40.20
2021,10,25,16,44,37.00
2021,10,25,16,45,38.60
2021,10,25,16,46,35.40
2021,10,25,16,47,33.80
2021,10,25,16,48,38.60
2021,10,25,16,49,40.20
2021,10,25,16,50,38.60
2021,10,25,16,51,43.50
2021,10,25,16,52,45.10
2021,10,25,16,53,38.60
2021,10,25,16,54,41.80
2021,10,25,16,55,43.50
2021,10,25,16,56,37.00
2021,10,25,16,57,37.00
2021,10,25,16,58,35.40
2021,10,25,16,59,40.20
2021,10,25,17,00,38.60
2021,10,25,17,01,38.60
2021,10,25,17,02,37.00
2021,10,25,17,03,37.00
2021,10,25,17,04,37.00
2021,10,25,17,05,37.00
2021,10,25,17,06,37.00
2021,10,25,17,07,38.60
2021,10,25,17,08,38.60
2021,10,25,17,09,40.20
2021,10,25,17,10,41.80
2021,10,25,17,11,40.20
2021,10,25,17,12,37.00
2021,10,25,17,13,37.00
2021,10,25,17,14,35.40
2021,10,25,17,15,37.00
2021,10,25,17,16,33.80
2021,10,25,17,17,43.50
2021,10,25,17,18,37.00
2021,10,25,17,19,38.60